Temp
23 22 21 21 20 20 20 20 19 19 20 20 20 19 19 19 19 19 19 19 19 19 18 18 19 19 19 19 19 19 19 19 19 19 19 19 18 17 19 19 20 20 19
22 23 22 22 21 20 20 20 20 20 20 20 20 19 19 19 19 19 19 19 19 18 19 18 19 19 19 19 19 19 19 19 19 19 19 19 18 18 19 19 19 18 18
23 22 21 22 21 21 20 20 20 20 20 20 20 20 20 19 19 19 19 19 18 18 18 18 19 19 19 19 19 19 19 19 19 19 19 20 20 19 18 19 19 18 18
21 20 19 20 20 20 20 20 20 20 20 20 20 20 20 19 19 19 19 19 18 18 19 19 19 19 19 19 19 19 19 19 18 19 19 22 20 19 18 19 17 17 17
22 19 19 20 20 19 20 20 20 20 20 20 20 20 19 19 19 19 19 19 19 18 18 19 19 19 19 19 19 19 19 19 19 19 20 21 20 19 18 18 17 18 18
22 20 19 19 19 19 19 19 19 19 20 20 19 19 19 19 19 19 19 19 19 19 19 18 19 19 19 19 18 18 18 19 19 19 21 21 20 19 19 18 18 18 18
21 20 19 19 19 19 19 19 19 19 19 19 19 19 19 19 19 19 19 19 19 19 19 19 18 19 19 19 18 18 18 18 19 20 21 21 20 20 19 18 18 17 17
20 19 19 19 19 19 19 19 19 19 19 19 19 19 19 19 19 19 19 19 19 19 19 19 18 18 19 19 19 18 18 18 18 19 20 20 20 19 18 17 18 17 16
19 18 18 19 19 19 19 19 19 19 19 19 19 19 19 19 19 19 19 19 19 19 19 19 19 18 18 18 19 19 18 18 18 20 21 21 21 20 19 17 17 17 16
17 18 18 18 18 19 19 18 19 19 19 19 19 19 19 19 19 19 19 19 19 19 19 19 19 18 18 18 18 19 18 18 18 19 21 21 21 20 19 17 17 17 16
18 17 16 16 17 17 18 18 18 18 19 19 19 19 19 19 20 20 19 19 19 19 19 19 19 19 18 18 18 18 18 17 19 19 20 21 20 20 19 18 17 17 17
17 17 16 15 15 16 17 17 18 19 18 19 19 19 19 20 20 19 19 19 19 19 19 18 18 18 18 18 18 18 17 18 19 20 21 21 20 20 19 18 18 17 17
16 16 15 15 14 15 15 15 17 18 18 19 19 19 19 19 20 20 19 19 19 19 19 19 18 18 18 19 19 19 18 19 20 21 21 21 20 19 19 18 18 18 17
16 15 15 14 14 14 14 15 16 16 17 16 17 17 17 18 19 20 20 20 18 18 19 19 19 19 19 20 20 20 20 20 21 21 21 21 20 20 19 17 17 18 17
16 15 14 14 14 13 13 14 14 15 15 16 15 15 16 16 17 18 19 20 20 19 18 18 18 18 19 19 19 19 19 19 19 20 21 21 21 20 19 19 17 17 17
16 15 14 13 13 13 13 13 13 13 14 14 14 14 14 14 15 16 17 18 19 20 20 19 18 18 18 18 19 19 19 19 19 19 20 19 20 20 20 19 19 17 17
16 14 14 13 13 13 13 12 13 13 13 13 13 14 14 13 13 14 15 16 17 18 19 20 19 18 18 17 17 17 17 18 18 19 19 19 19 19 19 19 19 18 18
15 14 13 13 13 13 13 12 12 12 13 13 13 13 13 13 13 13 13 14 15 17 17 18 19 19 18 17 17 17 17 17 17 18 18 18 18 19 19 19 19 19 19
14 14 13 13 13 13 12 11 12 13 13 14 14 14 13 13 13 13 13 14 14 15 16 16 17 18 18 19 18 17 17 17 17 17 17 17 18 18 18 19 19 19 19
14 13 13 13 12 13 12 11 12 12 12 13 12 12 12 13 13 13 13 13 14 14 15 16 16 17 17 18 18 19 19 18 18 18 17 18 17 17 17 18 18 18 19
13 13 13 12 12 12 12 11 11 10 10 11 10 10 10 10 11 12 13 13 14 14 15 15 16 16 16 17 17 17 17 18 18 19 18 18 18 17 17 17 17 17 18
14 13 12 12 12 12 11 11 11 10 9 10 9 8 8 8 9 9 10 10 11 12 13 14 15 15 16 16 17 17 17 18 19 19 20 20 19 18 17 17 17 17 17
14 12 12 11 11 11 10 11 11 11 10 10 9 8 8 8 8 8 8 8 10 10 10 11 12 11 12 14 15 16 16 17 18 18 18 18 18 17 16 17 16 17 16
13 11 11 11 10 10 10 10 10 10 10 10 9 9 9 8 8 8 8 8 8 8 8 9 9 9 10 12 12 14 14 14 14 15 17 17 17 17 17 17 17 16 17
12 11 11 10 10 10 10 9 10 10 10 10 10 10 9 8 7 7 7 8 7 7 7 7 7 8 9 9 10 11 11 13 14 14 15 16 17 18 18 18 17 16 15
12 11 11 10 10 9 9 9 9 9 9 10 9 9 9 9 8 8 7 7 7 7 6 6 7 7 8 8 9 9 9 10 11 13 13 14 14 15 16 17 17 16 15
Height
807 808 807 808 808 809 810 811 811 811 812 812 813 813 814 814 814 813 813 813 812 812 812 813 813 813 813 813 814 813 813 813 813 813 813 814 814 814 814 814 815 816 816
808 808 808 808 808 809 810 811 811 812 812 813 812 813 813 814 814 814 814 814 813 813 813 813 813 813 813 813 814 814 814 814 814 814 814 815 815 815 815 815 815 815 817
809 809 808 808 809 810 811 812 812 813 813 813 813 813 813 814 814 814 814 815 815 815 814 814 814 814 814 814 814 814 814 815 815 815 815 816 815 816 815 815 815 816 817
810 810 808 809 810 811 812 813 813 813 813 814 814 814 813 814 814 814 814 814 815 815 815 815 815 815 814 814 814 814 814 815 815 816 815 816 815 815 816 816 816 816 817
811 810 810 809 810 812 812 813 814 814 814 814 814 814 814 814 814 814 814 813 814 815 815 815 815 815 815 815 815 814 814 814 815 815 816 816 815 816 816 816 817 817 817
812 812 811 811 811 812 813 813 813 814 814 815 814 815 814 814 814 814 814 814 814 814 814 814 815 815 815 814 814 815 814 814 814 815 816 815 816 816 816 816 816 817 817
814 814 813 812 812 813 813 813 813 813 813 813 814 814 814 814 813 813 813 813 813 813 813 813 813 813 813 814 814 814 814 814 814 815 815 815 815 815 815 815 815 816 817
815 815 816 814 813 813 813 813 813 812 812 812 812 812 812 813 812 812 812 811 811 812 812 812 812 812 812 811 812 813 813 813 814 814 814 814 813 813 814 814 814 815 815
816 816 816 816 815 814 814 813 812 811 811 811 810 810 810 810 810 810 810 810 810 810 810 810 810 810 810 809 809 810 810 811 812 813 812 812 810 811 812 813 813 813 814
817 817 816 816 816 816 815 813 811 811 810 809 809 808 808 808 808 808 808 807 808 808 807 808 808 808 808 808 807 807 808 808 809 809 809 809 809 809 810 810 811 812 813
819 818 817 816 815 815 814 813 811 810 809 808 807 807 806 806 806 805 805 805 805 805 805 805 805 805 805 805 805 805 805 805 806 805 805 805 805 806 807 808 809 809 809
819 819 818 817 815 814 813 812 811 810 808 808 807 806 805 804 803 801 800 800 800 800 800 801 801 802 802 802 801 801 801 801 802 801 800 800 801 802 804 805 806 807 807
820 819 819 817 815 813 812 811 810 809 807 806 805 804 803 801 800 799 798 797 796 796 796 796 797 797 797 798 798 798 797 797 797 797 796 797 797 798 799 800 801 803 804
819 819 819 817 815 814 812 811 809 807 806 805 804 802 801 799 798 797 796 795 794 793 792 792 791 791 793 793 792 793 793 793 793 793 793 792 793 794 795 796 797 797 799
818 819 819 817 815 814 811 811 809 807 805 804 802 800 799 798 796 795 793 792 791 790 789 788 787 787 787 787 787 788 788 788 788 788 788 788 787 788 789 790 792 793 794
818 818 818 816 814 813 812 810 808 806 804 802 800 799 798 796 794 793 791 789 788 787 786 784 784 784 783 782 782 783 784 784 783 782 782 783 783 782 783 784 785 786 788
818 818 816 814 813 812 811 808 807 805 804 801 799 798 796 794 792 791 789 787 786 784 782 781 781 780 779 779 777 777 777 778 778 778 778 777 778 777 777 778 779 779 780
818 817 815 814 813 812 810 807 805 804 802 800 799 797 795 793 791 788 787 785 783 782 781 779 778 777 775 776 774 773 772 772 772 772 771 771 772 772 771 772 772 772 773
816 816 814 814 813 811 809 806 805 804 802 800 798 796 794 792 789 787 785 783 781 780 778 777 775 775 773 771 769 768 767 766 766 765 765 765 765 765 765 765 765 765 766
815 815 814 813 812 810 808 807 805 804 802 800 799 797 794 791 789 786 783 781 780 778 777 775 773 772 771 769 766 764 762 761 760 760 759 759 758 757 758 758 759 758 758
813 813 813 812 811 810 809 807 806 804 802 801 798 796 793 791 787 785 783 780 778 777 775 774 771 769 768 767 764 761 759 757 755 753 752 750 750 749 749 749 751 751 751
811 811 811 811 811 810 809 807 806 804 802 801 798 796 793 791 788 786 783 780 778 775 773 772 770 768 766 765 762 759 755 752 749 747 745 742 742 743 742 743 744 743 744
808 809 810 810 809 809 808 806 805 803 802 800 798 796 793 791 789 787 784 781 779 777 774 772 770 769 767 763 762 759 754 749 745 744 742 741 741 739 738 738 737 736 737
807 808 809 809 809 808 806 805 804 803 801 800 798 795 793 791 789 787 785 783 780 777 775 773 771 770 768 764 761 759 757 754 751 745 743 741 740 738 736 735 733 732 730
806 807 808 808 808 807 805 805 804 802 801 799 797 795 793 791 789 787 785 783 780 777 775 773 770 768 766 764 763 761 758 754 752 747 740 738 736 735 733 730 729 728 726
804 805 806 806 805 804 804 804 803 802 800 798 797 795 793 791 789 787 784 783 781 778 776 773 770 768 766 763 761 761 760 757 753 749 744 740 738 735 733 730 728 725 723
Wind_Speed
6 6 6 1 3 3 4 5 3 3 2 2 1 1 2 3 3 3 2 1 1 2 2 1 1 3 3 3 2 2 2 2 5 6 5 6 6 6 7 9 6 4 6
6 5 7 2 4 3 3 4 4 3 2 2 1 1 1 1 2 2 1 1 1 1 3 2 1 1 3 2 2 1 1 2 4 5 4 5 3 5 5 5 7 5 6
8 9 12 2 3 2 3 2 2 3 2 2 2 2 2 2 2 2 2 2 1 2 2 4 3 2 3 4 2 2 2 2 4 5 4 5 3 1 3 3 3 4 3
10 12 14 7 2 0 2 3 4 4 4 3 3 3 3 3 3 3 3 4 3 2 2 3 4 3 3 4 4 3 4 4 4 5 4 3 6 4 0 1 2 3 3
11 13 12 8 6 4 0 2 4 5 6 6 5 5 5 5 5 4 5 6 7 7 7 7 5 5 5 5 4 4 4 6 6 5 5 4 2 4 1 0 1 1 4
11 13 11 8 6 4 2 1 2 5 6 7 8 8 7 7 7 7 6 7 8 8 7 10 9 7 7 8 7 6 6 7 7 6 6 5 4 4 3 3 5 4 4
11 11 12 10 8 5 3 2 3 4 5 7 8 9 11 11 10 9 9 10 10 10 11 12 13 10 9 10 10 9 9 9 7 9 8 6 6 8 6 5 5 4 4
10 10 10 11 10 9 7 5 3 5 6 8 9 10 12 12 14 13 12 13 13 13 12 12 14 12 11 11 12 12 13 11 9 10 11 10 11 11 7 7 7 6 6
10 10 10 10 10 12 12 8 7 6 7 8 9 11 12 13 14 16 16 15 15 16 16 15 15 16 14 14 13 14 16 15 14 13 13 13 15 15 11 10 10 9 9
8 8 9 9 9 10 8 13 10 10 10 10 10 11 13 15 15 16 17 18 18 18 17 17 18 18 17 16 16 15 18 18 18 15 15 15 17 15 14 12 12 11 11
7 8 9 9 9 10 9 10 11 13 13 12 11 12 13 10 12 13 16 18 18 19 19 19 19 19 19 19 19 18 18 17 17 18 19 17 20 21 17 14 15 15 14
6 8 9 10 10 11 10 11 11 11 10 11 11 12 12 11 12 16 20 16 17 20 21 22 21 21 21 19 20 19 20 18 20 21 20 20 21 22 20 18 17 19 17
5 7 10 11 12 11 11 12 11 11 12 12 12 13 13 14 14 14 13 14 16 17 19 20 20 20 20 21 20 20 18 18 21 22 21 22 23 25 23 21 21 21 23
5 7 9 11 12 11 12 11 12 12 13 14 13 14 15 15 15 16 16 16 15 17 18 18 22 22 22 22 23 22 22 20 19 20 21 23 25 26 27 24 24 24 24
5 7 9 10 11 12 12 12 13 13 13 14 15 15 15 15 16 17 18 18 18 17 18 20 20 20 26 22 22 24 23 24 24 25 22 23 24 26 27 28 26 26 25
5 7 9 10 10 11 11 12 13 13 13 13 13 13 15 15 17 18 19 19 20 20 19 18 21 20 21 25 27 28 26 23 24 26 30 28 27 27 27 27 31 29 28
4 7 9 10 10 11 12 12 11 12 13 13 13 13 14 14 16 17 19 20 20 20 20 21 21 20 21 20 22 28 27 26 28 27 26 24 27 29 28 29 30 34 34
4 6 8 8 9 11 12 11 11 11 11 11 11 12 13 14 15 16 16 17 18 20 20 20 20 20 20 23 21 22 23 26 27 27 31 30 28 25 26 29 29 31 37
3 5 6 7 8 10 10 11 10 10 10 11 11 11 13 14 13 14 14 15 16 18 18 18 19 20 21 20 21 22 23 24 25 26 27 27 30 30 29 28 30 31 32
2 4 5 6 8 9 9 11 10 10 10 11 12 13 15 14 15 13 12 13 13 15 16 17 18 19 20 21 22 23 21 22 23 24 25 27 28 28 30 32 30 32 32
2 3 4 6 7 8 9 11 11 11 11 11 12 12 15 15 15 15 14 13 12 13 14 15 17 17 17 18 20 21 24 26 28 29 28 28 29 28 32 32 32 29 29
1 2 4 5 6 6 7 8 8 9 7 7 11 12 13 13 13 13 14 14 14 15 14 14 15 16 16 16 16 16 9 16 21 25 26 27 26 25 27 29 30 30 31
2 2 3 4 5 5 7 7 8 7 7 7 10 11 13 13 13 13 12 11 11 11 12 13 14 16 17 20 18 15 6 7 9 21 24 23 20 20 23 26 26 28 30
3 0 2 3 4 4 5 6 7 8 9 9 9 10 10 10 12 13 13 12 12 10 9 11 11 14 14 15 19 16 21 20 7 7 15 20 23 25 25 25 26 28 30
4 2 1 2 2 3 4 5 6 7 7 8 9 10 9 9 10 11 12 12 12 11 11 12 11 11 11 13 13 17 19 19 18 8 10 13 19 18 20 20 22 25 25
6 4 3 2 2 2 3 3 4 6 7 9 11 10 11 10 11 12 13 12 12 12 12 12 11 11 10 10 11 12 12 10 14 13 10 10 13 22 24 25 24 22 19
Wind_Direction
43 18 2 355 193 194 171 181 166 167 171 166 170 183 199 221 240 265 288 290 160 160 169 147 99 49 129 124 127 87 119 116 114 127 114 108 107 102 93 101 86 84 96
1 21 3 347 186 195 210 205 203 201 198 214 205 222 247 259 281 293 288 268 138 163 181 187 172 152 143 154 150 180 225 150 148 153 127 121 119 102 81 97 94 110 108
40 30 21 358 167 203 216 234 240 239 242 247 233 236 240 243 268 286 258 212 180 168 203 228 201 218 197 193 197 221 226 193 172 181 137 161 169 68 57 70 106 94 118
53 47 48 85 87 268 240 242 253 257 257 270 260 253 248 249 256 257 232 217 207 211 244 193 208 220 219 226 236 230 219 213 198 192 223 238 179 241 252 48 88 111 116
58 50 62 79 88 73 140 276 268 264 269 271 269 269 267 259 256 258 243 225 220 239 235 240 243 254 250 246 243 239 223 221 221 225 268 248 148 176 314 120 37 45 157
61 52 56 63 70 70 51 319 291 285 279 273 276 271 267 261 258 261 262 252 243 244 245 244 251 266 260 250 245 247 246 240 235 240 244 236 229 217 264 239 212 225 219
57 51 44 52 53 50 33 334 291 284 285 280 281 276 274 265 262 257 252 258 259 258 257 255 248 263 267 254 245 246 252 247 230 245 242 246 218 255 257 251 246 237 235
55 46 42 28 33 28 17 6 322 290 283 278 272 270 270 271 267 261 258 256 257 259 260 256 247 259 266 260 247 240 251 249 249 253 245 244 244 255 247 237 241 233 231
54 45 33 26 20 10 351 339 340 323 303 287 280 275 271 266 263 264 263 262 261 260 262 259 253 257 261 262 254 244 247 249 247 256 254 246 251 253 245 230 237 235 234
48 40 29 17 9 360 349 331 328 317 309 302 295 286 280 277 274 271 266 264 263 263 263 260 259 260 261 261 261 253 245 251 250 255 258 251 252 253 251 231 231 234 235
35 24 16 7 359 350 339 330 339 327 315 317 311 303 297 284 277 277 269 265 263 265 266 264 262 261 260 260 258 258 250 246 247 248 249 247 248 253 252 241 233 233 231
18 8 2 356 351 344 337 325 320 311 309 300 296 296 295 286 278 266 262 261 256 258 260 262 263 262 258 253 257 255 244 243 246 248 247 246 249 253 252 246 240 236 236
9 0 354 349 345 341 331 323 316 309 305 300 295 293 290 286 281 276 275 268 264 264 263 257 259 257 249 245 245 245 234 239 244 250 251 253 253 256 252 245 246 241 243
6 359 348 345 343 338 331 324 313 309 304 300 298 295 295 290 283 279 275 272 270 263 258 253 248 251 252 248 243 244 247 248 246 250 255 255 255 259 260 248 245 245 241
357 350 343 344 343 336 335 325 320 314 308 302 299 297 293 290 286 283 279 277 273 269 266 264 260 257 249 254 253 250 244 246 249 253 258 257 258 261 264 257 246 245 242
352 342 340 342 342 337 331 326 322 317 315 313 308 304 300 295 290 286 281 277 275 273 272 267 267 267 263 258 255 255 263 261 253 249 251 254 265 259 264 264 253 244 244
337 338 339 344 342 339 334 330 326 321 317 314 312 311 309 306 300 293 287 283 278 277 275 274 268 265 267 264 258 256 256 256 255 258 257 254 255 261 261 266 263 252 246
326 335 345 346 342 342 340 337 334 331 328 326 324 321 320 316 307 299 291 286 282 282 281 279 277 277 263 272 271 266 261 259 260 260 254 257 261 260 260 261 262 262 254
317 333 345 346 345 344 343 347 343 340 343 343 342 341 337 329 323 312 298 292 289 285 283 281 277 276 280 271 264 266 266 270 267 264 258 255 258 258 256 259 261 261 260
296 329 334 341 344 346 347 351 349 351 348 349 351 347 343 341 335 328 316 304 298 289 283 278 275 275 278 284 286 285 276 270 270 269 265 262 257 254 258 255 254 257 256
250 324 338 341 348 350 349 350 350 343 343 349 343 350 356 353 356 347 337 326 311 298 295 291 287 285 281 279 281 278 273 266 265 262 260 257 256 253 253 254 255 254 253
229 357 355 353 348 349 343 337 334 331 330 341 351 355 355 356 356 358 352 342 339 342 337 327 313 297 288 283 281 289 287 280 271 265 263 253 254 258 258 255 257 256 254
172 8 351 340 340 342 341 334 335 333 338 342 347 351 355 358 350 350 347 344 341 338 337 331 329 334 323 313 301 289 290 278 313 308 308 308 299 284 279 271 263 262 261
175 180 340 345 344 341 346 344 347 343 339 334 333 338 345 351 353 357 353 348 345 341 334 327 327 321 325 324 330 321 316 308 298 295 294 297 298 292 281 277 270 271 272
187 199 279 308 328 344 356 359 351 344 337 336 341 344 349 351 351 356 357 351 347 344 338 332 331 327 327 323 325 324 320 316 310 298 298 303 294 291 294 296 280 276 269
206 214 225 248 292 337 350 355 359 351 349 350 351 353 352 351 352 355 356 354 350 347 340 335 332 333 333 335 339 334 329 322 317 311 304 303 299 303 301 303 303 304 285